MDT,Max TemperatureF,Mean TemperatureF,Min TemperatureF,Max Dew PointF,MeanDew PointF,Min DewpointF,Max Humidity, Mean Humidity, Min Humidity, Max Sea Level PressureIn, Mean Sea Level PressureIn, Min Sea Level PressureIn, Max VisibilityMiles, Mean VisibilityMiles, Min VisibilityMiles, Max Wind SpeedMPH, Mean Wind SpeedMPH, Max Gust SpeedMPH,PrecipitationIn, CloudCover, Events, WindDirDegrees
2013-3-1,42,35,28,30,28,25,100,83,61,30.46,30.43,30.38,10,10,6,5,0,,0.02,5,,177
2013-3-2,41,31,21,30,26,19,100,80,61,30.43,30.24,29.97,10,10,8,6,1,,0.00,2,,152
2013-3-3,39,32,24,36,22,7,100,66,28,30.05,29.90,29.79,10,10,5,25,5,37,0.01,6,,333
2013-3-4,35,28,21,18,15,12,86,63,38,30.21,30.15,30.05,10,10,10,7,2,,0.00,4,,43
2013-3-5,39,27,15,25,16,10,93,65,38,30.18,30.06,29.92,10,10,10,7,2,,0.00,1,,266
2013-3-6,39,31,23,36,25,18,100,77,56,29.91,29.78,29.68,10,10,7,17,3,18,0.03,5,,186
2013-3-7,42,34,26,25,19,12,80,54,29,30.02,29.96,29.85,10,10,10,14,6,,0.01,1,,187
2013-3-8,42,30,19,23,19,16,93,68,39,29.97,29.92,29.82,10,10,10,6,1,,0.00,0,,167
2013-3-9,44,30,17,23,19,14,93,65,37,30.35,30.17,29.97,10,10,8,8,3,,0.00,0,,177
2013-3-10,42,30,19,27,21,18,93,68,42,30.43,30.30,30.17,10,10,10,5,1,,0.00,3,,209
2013-3-11,50,39,28,34,24,16,100,61,26,30.22,30.17,30.12,10,10,3,21,4,29,0.00,4,,293
2013-3-12,48,37,26,30,24,19,80,62,43,30.23,30.18,30.10,10,10,10,7,2,,0.00,5,,157
2013-3-13,55,42,28,36,30,23,100,70,38,30.27,30.21,30.17,10,10,10,7,1,,0.00,2,,192
2013-3-14,55,40,26,37,32,25,100,74,44,30.27,30.17,30.05,10,10,10,7,1,,0.00,0,,151
2013-3-15,60,45,30,34,29,19,93,60,22,30.11,30.04,29.97,10,10,7,15,3,22,0.00,2,,41
2013-3-16,53,38,24,28,24,14,100,56,21,30.04,29.89,29.64,10,10,6,18,2,29,0.00,1,,239
2013-3-17,44,35,26,30,17,9,93,52,31,29.99,29.82,29.60,10,10,3,20,9,28,0.00,6,,318
2013-3-18,42,32,21,21,15,9,86,53,26,30.03,29.96,29.89,10,10,10,20,6,25,0.00,5,,285
2013-3-19,50,36,21,19,12,5,68,39,17,30.23,30.13,30.01,10,10,10,12,4,17,0.00,1,,108
2013-3-20,51,40,30,39,29,18,93,62,45,30.01,29.78,29.55,10,10,5,21,6,37,0.04,7,,177
2013-3-21,37,32,24,30,18,7,87,59,28,29.96,29.87,29.75,10,10,5,21,8,24,0.00,6,,289
2013-3-22,33,27,21,21,17,10,93,68,41,30.09,29.97,29.92,10,9,2,18,3,23,0.00,5,,287
2013-3-23,33,24,15,18,12,3,86,58,28,30.23,30.17,30.10,10,10,8,12,2,17,0.00,5,,321
2013-3-24,39,27,15,16,11,3,93,56,22,30.28,30.20,30.12,10,10,9,8,1,,0.00,2,,284
2013-3-25,46,30,14,21,13,9,93,52,23,30.20,30.09,29.96,10,10,7,9,3,,0.00,2,,53
2013-3-26,53,42,30,25,21,18,75,50,28,29.99,29.94,29.88,10,10,10,7,2,,0.00,5,,214
2013-3-27,57,40,24,34,27,19,86,63,36,30.02,29.97,29.93,10,10,8,13,2,17,0.00,4,,84
2013-3-28,57,42,28,34,31,25,93,64,36,30.11,30.04,29.97,10,10,8,7,2,,0.00,5,,27
2013-3-29,53,44,35,39,34,30,87,67,47,30.19,30.13,30.06,10,10,8,13,2,,0.01,6,,218
2013-3-30,60,46,33,39,32,25,100,64,25,30.28,30.20,30.11,10,10,5,7,2,,0.02,2,,332
2013-3-31,66,45,24,28,25,16,93,56,14,30.16,30.05,29.89,10,10,10,7,1,,0.00,0,,299